Alliance, NE

6:20 PM MDT on April 27, 2017 (GMT -0600)
Alliance Municipal

Weather History for KAIA - February, 2014

Change the Weather History Date:

Monday, February 3, 2014

  Actual Average Record
Temperature  
Mean Temperature 13 °F 25 °F  
Max Temperature 30 °F 39 °F 69 °F (1962)
Min Temperature -5 °F 11 °F -27 °F (1996)
Degree Days  
Heating Degree Days 52 40  
Month to date heating degree days 173 120  
Since 1 July heating degree days 3671 4465  
Cooling Degree Days 0 0  
Month to date cooling degree days 0 0  
Year to date cooling degree days 0 0  
Moisture  
Dew Point 9 °F    
Average Humidity 82    
Maximum Humidity 95    
Minimum Humidity 68    
Precipitation  
Precipitation 0.00 in 0.02 in 0.23 in (1960)
Month to date precipitation T 0.04  
Year to date precipitation 0.12 0.22  
Sea Level Pressure  
Sea Level Pressure 30.10 in    
Wind  
Wind Speed 9 mph (East)    
Max Wind Speed 21 mph    
Max Gust Speed 26 mph    
Visibility 9 miles    
Events      
T = Trace of Precipitation, MM = Missing Value Source: NWS Daily Summary

Daily Weather History Graph

Daily Weather History Graph

Search for Another Location

Airport or City:

Trip Planner

Search our weather history database for the weather conditions in past years. The results will help you decide how hot, cold, wet, or windy it might be!

Date:

Astronomy

Feb. 03, 2014 Rise Set
Actual Time 7:01 AM MST 5:08 PM MST
Civil Twilight 6:32 AM MST 5:38 PM MST
Nautical Twilight 5:59 AM MST 6:11 PM MST
Astronomical Twilight 5:26 AM MST 6:44 PM MST
Moon 9:00 AM MST (2/3) 10:07 PM MST (2/3)
Length of Visible Light 11h 05m
Length of Day
10h 06m
Waxing Crescent, 20% of the Moon is Illuminated
Feb 3
Waxing Crescent
Feb 6
First Quarter
Feb 14
Full
Feb 22
Last Quarter
Mar 1
New

Hourly Weather History & Observations

Time (MST) Temp. Windchill Dew Point Humidity Pressure Visibility Wind Dir Wind Speed Gust Speed Precip Events Conditions
12:53 AM -0.9 °F - -6.0 °F 79% 30.13 in 10.0 mi Calm Calm - N/A   Clear
1:53 AM -2.0 °F - -6.0 °F 83% 30.13 in 10.0 mi Calm Calm - N/A   Clear
2:53 AM -0.0 °F -9.9 °F -5.1 °F 79% 30.09 in 9.0 mi SE 4.6 mph - N/A   Clear
3:53 AM 1.9 °F -5.6 °F -2.0 °F 83% 30.09 in 10.0 mi South 3.5 mph - N/A   Partly Cloudy
4:53 AM 3.9 °F -3.4 °F -0.0 °F 84% 30.08 in 10.0 mi SE 3.5 mph - N/A   Clear
5:53 AM 5.0 °F -2.1 °F 1.0 °F 84% 30.10 in 10.0 mi SSE 3.5 mph - N/A   Clear
6:53 AM 6.1 °F - 1.9 °F 83% 30.12 in 10.0 mi Calm Calm - N/A   Clear
7:53 AM 8.1 °F - 5.0 °F 87% 30.12 in 7.0 mi Calm Calm - N/A   Clear
8:53 AM 12.9 °F 5.2 °F 10.0 °F 88% 30.13 in 5.0 mi South 4.6 mph - N/A   Clear
9:53 AM 18.0 °F 8.7 °F 14.0 °F 84% 30.12 in 6.0 mi South 6.9 mph - N/A   Partly Cloudy
10:53 AM 23.0 °F 10.6 °F 16.0 °F 74% 30.08 in 10.0 mi South 13.8 mph - N/A   Clear
11:53 AM 25.0 °F 15.5 °F 17.1 °F 72% 30.05 in 10.0 mi South 9.2 mph - N/A   Clear
12:53 PM 27.0 °F 18.7 °F 18.0 °F 69% 30.04 in 10.0 mi South 8.1 mph - N/A   Clear
1:53 PM 28.0 °F 21.7 °F 19.0 °F 69% 30.03 in 10.0 mi South 5.8 mph - N/A   Clear
2:53 PM 28.9 °F - 19.9 °F 69% 30.03 in 10.0 mi Calm Calm - N/A   Clear
3:53 PM 26.1 °F 16.8 °F 19.0 °F 75% 30.05 in 10.0 mi ENE 9.2 mph - N/A   Clear
4:53 PM 21.9 °F 8.7 °F 15.1 °F 75% 30.08 in 10.0 mi North 15.0 mph - N/A   Mostly Cloudy
5:53 PM 17.1 °F 1.0 °F 12.0 °F 81% 30.13 in 10.0 mi North 18.4 mph - N/A   Scattered Clouds
6:53 PM 12.9 °F -3.9 °F 10.0 °F 88% 30.18 in 10.0 mi North 17.3 mph - N/A   Scattered Clouds
7:42 PM 12.9 °F -2.8 °F 9.0 °F 84% 29.99 in 10.0 mi North 15.0 mph - N/A   Mostly Cloudy
7:53 PM 14.0 °F -2.0 °F 10.0 °F 84% 30.19 in 10.0 mi North 16.1 mph - N/A   Overcast
8:35 PM 14.0 °F -2.5 °F 10.0 °F 84% 30.01 in 10.0 mi NNE 17.3 mph - N/A   Overcast
8:53 PM 14.0 °F -2.5 °F 10.0 °F 84% 30.18 in 10.0 mi NNE 17.3 mph - N/A   Overcast
9:53 PM 12.9 °F -1.6 °F 9.0 °F 84% 30.19 in 10.0 mi NE 12.7 mph - N/A   Overcast
10:53 PM 12.9 °F -2.2 °F 9.0 °F 84% 30.18 in 10.0 mi NE 13.8 mph - N/A   Overcast
11:53 PM 12.9 °F -0.9 °F 9.0 °F 84% 30.18 in 6.0 mi NE 11.5 mph - N/A   Overcast